SAS206 ENCN-ENGM

Flight info

Callsign SAS206
Flight time N/A
Altitude 25000
Route VAVET DCT PIPEX DCT ULMUG DCT RIPAM
Aircraft B737/M-SDE2E3FGHIRWXY/LB1

Departure

Time 2026-04-20 15:56
Airport Kristiansand Airport (ENCN)

Arrival

Time N/A
Airport Oslo-Gardermoen International Airport (ENGM)
Time Latitude Longitude Altitude Speed Heading
2026-04-20 15:49 58.20312 8.07632 51 ft 0 kts 301°
2026-04-20 15:52 58.20305 8.07654 53 ft 2 kts 301°
2026-04-20 15:53 58.20290 8.07710 56 ft 2 kts 268°
2026-04-20 15:53 58.20295 8.07731 57 ft 1 kts 222°
2026-04-20 15:53 58.20296 8.07732 57 ft 0 kts 222°
2026-04-20 15:54 58.20288 8.07719 51 ft 4 kts 220°
2026-04-20 15:54 58.20245 8.07668 52 ft 13 kts 212°
2026-04-20 15:54 58.20139 8.07543 53 ft 20 kts 212°
2026-04-20 15:55 58.20018 8.07399 53 ft 20 kts 212°
2026-04-20 15:55 58.19886 8.07389 54 ft 20 kts 162°
2026-04-20 15:55 58.19759 8.07469 52 ft 19 kts 162°
2026-04-20 15:55 58.19735 8.07629 59 ft 16 kts 38°
2026-04-20 15:56 58.19997 8.07974 51 ft 84 kts 36°
2026-04-20 15:56 58.20667 8.08856 94 ft 143 kts 37°
2026-04-20 15:56 58.21520 8.09992 743 ft 154 kts 37°
2026-04-20 15:56 58.22407 8.11181 1551 ft 161 kts 38°
2026-04-20 15:57 58.23399 8.12510 2079 ft 187 kts 38°
2026-04-20 15:57 58.24506 8.14000 2660 ft 205 kts 38°
2026-04-20 15:57 58.25745 8.15654 3133 ft 229 kts 38°
2026-04-20 15:57 58.27114 8.17461 3967 ft 246 kts 37°
2026-04-20 15:58 58.28534 8.19336 5101 ft 252 kts 38°
2026-04-20 15:58 58.29984 8.21261 6311 ft 255 kts 39°
2026-04-20 15:58 58.31440 8.23203 7438 ft 261 kts 38°
2026-04-20 15:58 58.32944 8.25216 8514 ft 267 kts 39°
2026-04-20 15:59 58.34480 8.27276 9609 ft 272 kts 39°
2026-04-20 15:59 58.36040 8.29369 10667 ft 277 kts 39°
2026-04-20 15:59 58.37626 8.31509 11676 ft 281 kts 40°
2026-04-20 15:59 58.39170 8.33805 12747 ft 282 kts 42°
2026-04-20 16:00 58.40694 8.36181 13791 ft 286 kts 42°